Location: Unspecified
(0.0000°N, 0.0000°E)
Time: 00:59:05
(UTC+00:00)

ZACube-1 - Visible Passes

Search period start: 18 January 2019 00:00
Search period end: 28 January 2019 00:00
Orbit: 584 x 667 km, 97.6° (Epoch: 16 January)

Date Brightness Start Highest point End Pass type
(mag) Time Alt. Az. Time Alt. Az. Time Alt. Az.
18 Jan ? 18:33:18 10° SSE 18:37:49 58° ENE 18:42:17 10° N visible
19 Jan ? 18:52:19 10° S 18:56:54 75° W 19:01:26 10° NNW visible
20 Jan ? 19:11:42 10° S 19:15:59 39° WSW 19:20:13 10° NNW visible
21 Jan ? 05:48:25 10° E 05:49:21 11° ESE 05:50:19 10° ESE visible
21 Jan ? 19:31:32 10° SSW 19:35:02 22° WSW 19:38:31 10° NW visible
22 Jan ? 19:52:24 10° SW 19:54:05 12° WSW 19:55:46 10° W visible
23 Jan ? 18:32:43 10° SSE 18:37:13 58° ENE 18:41:39 10° N visible
24 Jan ? 18:51:44 10° S 18:56:18 74° WSW 19:00:47 10° NNW visible
25 Jan ? 19:11:07 10° S 19:15:22 39° WSW 19:19:34 10° NNW visible
26 Jan ? 05:47:35 10° E 05:48:41 11° ESE 05:49:47 10° ESE visible
26 Jan ? 19:30:58 10° SSW 19:34:26 21° WSW 19:37:51 10° NW visible
27 Jan ? 19:51:54 10° WSW 19:53:28 12° WSW 19:55:02 10° W visible
